Temp
12 12 11 12 12 12 12 12 12 12 11 12 12 12 12 12 11 11 11 10 10 10 9 9 9 8 8 7 7 7 6 6 6 6 6 6 6 6 6 6 6 6
13 12 11 11 11 11 11 11 11 11 11 12 12 11 11 11 11 11 10 10 10 10 9 9 8 8 8 8 7 7 6 6 6 6 6 6 6 6 6 6 6 5
13 13 12 11 11 11 10 11 11 11 11 11 11 11 11 11 10 10 10 10 10 9 9 9 8 8 8 7 7 7 6 6 6 6 5 5 5 5 6 6 5 5
13 13 13 12 12 11 10 10 10 10 11 11 11 11 10 10 10 10 9 9 9 9 9 9 8 8 8 7 7 6 6 6 5 5 5 5 5 5 5 5 5 5
12 12 12 12 12 12 11 10 10 10 10 10 11 11 10 10 10 9 9 9 9 8 8 8 8 8 7 7 7 6 6 6 5 5 5 5 5 5 5 5 5 5
12 12 12 11 11 11 11 11 10 10 10 10 10 10 11 10 10 10 9 9 9 8 8 8 8 8 7 7 6 6 6 6 5 5 5 5 5 5 5 5 5 5
13 12 12 11 11 11 11 11 11 10 9 9 9 10 10 10 10 10 10 9 9 8 8 8 8 7 7 7 6 6 6 5 5 5 5 5 5 5 5 5 5 5
11 11 11 11 11 10 11 11 11 10 10 9 9 9 9 10 10 10 9 9 8 8 8 8 8 7 7 7 6 6 6 5 5 5 5 5 5 4 5 5 4 4
9 10 10 10 11 11 11 11 11 11 10 10 10 9 9 9 9 9 9 9 8 8 8 8 8 7 7 7 7 6 6 6 5 5 5 5 5 4 4 4 4 4
9 9 9 10 11 11 12 12 12 12 11 10 10 9 9 9 9 9 9 9 8 8 7 7 7 7 7 7 7 6 6 6 5 5 5 5 5 4 4 4 4 4
9 9 9 10 10 11 12 12 12 11 11 10 10 9 9 9 9 9 9 9 9 9 8 7 7 7 7 7 7 6 6 6 5 5 5 5 4 4 4 4 4 4
8 8 8 9 9 10 10 10 10 10 10 10 9 9 9 9 9 9 9 10 10 9 8 7 7 6 7 7 7 6 6 6 5 5 5 5 4 4 4 4 4 4
6 6 6 7 8 8 8 9 9 9 9 9 9 8 8 8 8 8 9 10 10 9 9 8 6 6 6 6 6 6 6 6 6 5 5 4 4 4 4 4 4 4
6 5 5 5 6 6 7 7 7 8 8 8 7 7 8 8 9 8 8 9 9 9 9 8 7 6 5 5 5 6 6 6 6 5 5 4 4 4 4 4 4 3
5 4 4 4 4 5 6 6 6 7 7 6 6 7 7 7 8 7 6 6 7 8 9 8 7 7 6 6 5 5 6 6 6 5 5 4 4 4 3 3 3 3
3 3 2 3 3 4 4 5 5 5 6 5 5 6 5 5 5 6 5 5 5 6 6 7 8 8 7 6 5 5 5 5 5 5 4 4 4 3 3 3 3 3
2 2 2 2 2 2 3 3 4 4 4 5 5 5 4 4 4 4 5 4 4 4 5 6 7 7 6 5 5 4 4 4 4 5 4 4 3 3 3 3 3 2
2 2 2 1 1 1 1 2 2 3 3 3 4 4 4 3 3 3 3 3 3 3 3 4 5 5 5 5 4 3 3 3 4 4 4 4 3 3 3 2 2 2
2 2 2 1 1 -0 -0 0 1 1 2 2 3 3 3 3 3 2 2 2 2 2 3 3 3 3 4 3 3 3 3 3 3 3 3 3 3 3 2 2 2 2
2 1 1 1 1 -0 -1 -1 -0 0 1 1 1 2 2 2 2 1 1 1 1 2 2 2 2 2 3 2 2 2 2 2 2 2 2 2 2 2 2 2 1 1
1 1 1 1 1 0 -1 -1 -1 -1 -0 0 1 1 1 1 1 1 1 1 1 1 1 1 2 2 2 2 1 1 1 1 1 1 1 2 2 1 1 1 1 1
-0 0 0 1 1 0 -0 -1 -2 -2 -1 -1 -0 -0 0 0 0 0 0 1 1 1 1 1 1 1 1 1 1 1 1 1 0 0 1 1 1 0 0 -0 -0 0
-1 -1 -0 -0 0 -0 -0 -1 -1 -2 -2 -2 -1 -1 -1 -1 -0 -0 -0 0 0 1 1 1 1 0 -0 -0 -0 -0 -0 -0 -0 -0 -0 -0 -0 -0 -1 -1 -1 -1
-1 -1 -1 -1 -1 -0 -1 -1 -1 -2 -3 -3 -3 -2 -2 -1 -1 -1 -1 -1 -0 0 0 0 0 0 -0 -1 -1 -1 -1 -1 -1 -1 -1 -1 -1 -1 -2 -2 -2 -2
-2 -2 -2 -2 -1 -1 -1 -1 -1 -1 -2 -3 -3 -3 -3 -3 -2 -2 -2 -1 -1 -1 -1 -1 -1 -1 -1 -1 -1 -1 -1 -1 -1 -1 -1 -1 -2 -2 -2 -3 -3 -3
-2 -2 -2 -2 -2 -2 -1 -1 -2 -2 -2 -2 -3 -4 -4 -3 -3 -3 -3 -2 -2 -2 -2 -2 -2 -2 -2 -2 -2 -2 -2 -2 -2 -2 -2 -2 -2 -2 -3 -3 -3 -3
Height
1411 1412 1412 1413 1414 1415 1416 1418 1421 1423 1426 1428 1431 1434 1437 1439 1441 1442 1444 1446 1449 1452 1455 1458 1460 1463 1466 1469 1471 1473 1475 1477 1479 1480 1482 1483 1485 1486 1486 1487 1487 1488
1407 1409 1411 1412 1413 1413 1414 1415 1417 1419 1421 1424 1427 1431 1433 1435 1437 1438 1441 1443 1445 1448 1450 1453 1456 1459 1462 1464 1466 1469 1471 1473 1475 1476 1478 1480 1481 1482 1483 1484 1484 1485
1404 1405 1407 1409 1410 1412 1413 1414 1415 1416 1418 1420 1423 1426 1428 1430 1433 1435 1437 1439 1441 1444 1447 1449 1452 1455 1458 1460 1463 1465 1467 1469 1471 1473 1475 1476 1478 1478 1479 1480 1481 1482
1401 1402 1403 1405 1407 1409 1411 1412 1413 1414 1414 1415 1417 1419 1422 1425 1428 1430 1432 1435 1437 1440 1443 1445 1448 1451 1453 1456 1458 1460 1463 1465 1467 1469 1471 1472 1474 1475 1476 1477 1478 1479
1400 1400 1401 1402 1403 1405 1407 1408 1410 1411 1412 1412 1413 1415 1417 1419 1422 1424 1427 1430 1432 1435 1438 1441 1443 1446 1449 1451 1453 1456 1458 1460 1463 1465 1467 1469 1470 1472 1473 1474 1475 1476
1399 1399 1399 1400 1401 1402 1403 1404 1406 1408 1409 1410 1411 1411 1412 1414 1416 1418 1421 1423 1426 1429 1432 1435 1438 1441 1444 1446 1449 1451 1453 1455 1458 1460 1463 1464 1466 1468 1469 1470 1471 1473
1398 1398 1398 1398 1399 1400 1400 1401 1403 1404 1406 1408 1409 1409 1409 1410 1411 1413 1416 1418 1421 1423 1425 1428 1431 1434 1438 1441 1443 1446 1448 1451 1453 1456 1458 1460 1462 1464 1465 1466 1468 1469
1398 1397 1397 1396 1396 1397 1397 1398 1399 1401 1403 1404 1404 1405 1405 1406 1407 1409 1412 1414 1416 1418 1420 1423 1425 1428 1431 1434 1437 1440 1442 1445 1448 1450 1452 1454 1457 1459 1460 1462 1464 1466
1397 1397 1396 1395 1394 1394 1394 1395 1396 1397 1398 1399 1399 1400 1401 1403 1404 1405 1407 1409 1411 1413 1415 1418 1420 1422 1424 1427 1430 1433 1436 1439 1442 1444 1447 1449 1451 1454 1456 1458 1460 1462
1392 1393 1394 1393 1392 1392 1391 1392 1392 1392 1393 1393 1394 1394 1396 1398 1399 1401 1402 1403 1405 1407 1410 1412 1414 1416 1418 1420 1423 1426 1430 1433 1435 1438 1441 1443 1446 1449 1451 1453 1455 1457
1388 1389 1389 1389 1389 1389 1388 1388 1388 1387 1387 1387 1388 1389 1390 1392 1393 1394 1395 1396 1398 1401 1404 1406 1409 1411 1412 1414 1417 1420 1423 1426 1429 1432 1434 1437 1440 1443 1445 1448 1449 1451
1384 1385 1385 1385 1385 1385 1384 1384 1382 1382 1382 1382 1382 1383 1384 1386 1387 1387 1388 1390 1392 1394 1397 1400 1404 1406 1408 1409 1412 1414 1417 1419 1422 1424 1427 1430 1433 1436 1439 1441 1443 1445
1380 1381 1381 1381 1380 1379 1379 1378 1376 1375 1375 1376 1377 1378 1378 1379 1380 1381 1382 1383 1385 1387 1390 1394 1398 1401 1403 1405 1407 1409 1410 1412 1415 1417 1420 1423 1426 1429 1432 1435 1437 1439
1375 1376 1376 1375 1375 1374 1373 1371 1370 1369 1368 1369 1371 1371 1371 1372 1373 1374 1376 1377 1378 1380 1382 1386 1390 1393 1396 1398 1400 1402 1404 1406 1407 1410 1412 1415 1418 1422 1425 1428 1430 1433
1371 1370 1370 1369 1369 1368 1367 1365 1364 1363 1363 1363 1363 1364 1365 1366 1367 1369 1370 1371 1372 1373 1375 1378 1381 1383 1387 1389 1392 1395 1396 1398 1400 1402 1405 1408 1411 1414 1418 1421 1424 1427
1367 1366 1365 1364 1363 1362 1361 1360 1359 1358 1358 1357 1356 1357 1359 1360 1362 1363 1365 1366 1367 1368 1369 1370 1372 1375 1378 1381 1385 1388 1390 1392 1394 1396 1399 1401 1404 1407 1410 1413 1417 1420
1365 1362 1360 1358 1357 1356 1355 1354 1353 1353 1352 1351 1351 1352 1353 1354 1356 1357 1358 1360 1362 1363 1364 1364 1365 1367 1371 1375 1379 1382 1385 1388 1389 1391 1393 1395 1397 1400 1403 1407 1411 1415
1364 1360 1357 1355 1353 1352 1350 1349 1348 1347 1346 1346 1346 1346 1348 1349 1349 1350 1352 1354 1357 1358 1359 1359 1360 1362 1366 1369 1373 1377 1380 1382 1384 1386 1387 1389 1391 1394 1398 1402 1406 1409
1361 1358 1356 1353 1351 1349 1347 1345 1344 1342 1341 1341 1341 1341 1342 1343 1343 1345 1346 1349 1351 1352 1353 1355 1356 1359 1361 1364 1368 1372 1375 1377 1379 1381 1382 1384 1386 1389 1393 1397 1400 1404
1360 1357 1354 1352 1349 1346 1344 1342 1340 1338 1337 1336 1336 1336 1336 1337 1338 1340 1341 1343 1345 1347 1350 1351 1353 1355 1357 1360 1363 1367 1370 1372 1375 1376 1377 1379 1381 1384 1388 1392 1396 1400
1358 1355 1353 1350 1348 1344 1341 1338 1336 1335 1333 1332 1331 1331 1331 1332 1333 1334 1335 1337 1339 1342 1345 1347 1348 1351 1353 1355 1358 1362 1365 1368 1369 1371 1372 1374 1376 1380 1384 1388 1392 1395
1356 1353 1350 1348 1345 1342 1339 1336 1333 1331 1330 1328 1327 1327 1327 1328 1328 1329 1331 1332 1334 1337 1339 1341 1344 1346 1348 1351 1354 1357 1360 1362 1363 1365 1367 1369 1371 1375 1379 1383 1387 1390
1353 1350 1347 1345 1343 1341 1338 1334 1331 1328 1326 1325 1324 1323 1323 1324 1324 1325 1327 1328 1329 1331 1333 1336 1338 1341 1344 1347 1350 1353 1354 1355 1356 1359 1361 1363 1366 1370 1374 1377 1381 1385
1352 1349 1346 1344 1342 1341 1338 1333 1328 1325 1323 1322 1321 1321 1320 1321 1321 1322 1323 1324 1325 1326 1328 1331 1333 1336 1339 1342 1345 1348 1348 1348 1350 1354 1356 1358 1361 1364 1368 1372 1377 1381
1350 1348 1346 1344 1342 1339 1335 1331 1326 1322 1320 1319 1318 1318 1318 1318 1318 1319 1319 1319 1321 1322 1324 1327 1328 1331 1334 1337 1340 1343 1342 1342 1345 1349 1351 1353 1355 1358 1363 1368 1373 1377
1348 1346 1344 1342 1339 1335 1331 1327 1324 1321 1318 1316 1315 1315 1315 1315 1315 1315 1315 1316 1317 1318 1320 1322 1324 1326 1329 1332 1335 1337 1336 1335 1339 1342 1345 1347 1350 1353 1357 1362 1367 1371
Wind_Speed
32 35 37 38 38 39 39 39 39 39 39 39 39 38 37 37 38 40 42 43 44 45 45 45 45 45 44 44 45 45 44 42 41 39 37 35 33 31 29 28 26 25
30 33 36 38 40 40 41 40 39 39 38 37 37 37 37 38 38 39 40 42 43 44 44 45 45 45 45 45 45 46 45 44 42 41 38 36 34 32 31 29 27 26
29 31 34 37 40 42 43 42 41 40 38 37 37 38 39 39 38 38 39 40 42 42 43 44 44 45 45 45 46 46 46 45 44 42 40 38 36 34 32 30 29 27
29 30 32 33 36 40 43 44 43 42 40 40 40 40 40 40 39 39 39 39 40 41 41 42 43 44 45 45 46 47 46 46 45 43 41 39 38 36 34 32 31 29
31 32 32 33 34 37 41 44 45 45 43 42 41 41 41 41 41 40 40 40 40 40 40 42 43 44 45 45 46 47 47 47 46 44 42 41 40 38 36 34 33 31
33 34 35 36 37 37 40 42 45 46 46 45 43 42 42 42 42 41 41 41 40 40 40 41 42 43 44 45 47 48 48 48 47 45 44 43 41 39 37 36 34 32
34 34 36 38 39 40 41 42 44 46 47 47 46 45 45 44 44 43 42 42 41 40 40 40 41 42 43 45 47 48 48 48 48 47 46 45 43 41 39 38 36 33
38 38 38 39 40 42 43 44 45 46 47 48 49 49 48 47 45 44 44 43 43 42 41 41 41 41 42 44 46 47 48 49 49 48 48 47 45 44 42 40 37 35
42 42 41 41 42 43 44 44 46 47 48 49 51 51 51 49 48 46 45 45 45 45 43 42 41 41 41 43 44 46 48 49 50 49 49 48 47 45 43 41 40 37
40 41 42 44 44 44 45 45 46 48 49 50 52 53 52 51 50 49 48 48 47 47 46 44 43 42 42 43 44 45 47 48 49 50 50 49 48 47 45 44 42 40
37 40 42 44 44 45 46 47 49 50 51 52 54 55 54 53 52 52 51 50 49 48 48 47 45 43 43 44 44 45 46 47 48 50 50 50 49 48 47 46 44 42
35 39 42 44 44 45 46 47 50 52 53 55 55 55 56 55 55 54 53 52 51 50 49 49 47 45 44 44 44 44 46 47 48 49 50 50 50 50 49 48 46 44
34 36 39 41 43 45 46 47 50 51 53 55 56 56 56 57 57 57 56 54 53 52 51 50 48 47 46 44 44 44 45 46 47 48 50 51 51 51 50 49 48 46
33 33 35 38 40 42 45 48 49 50 52 53 55 57 57 57 58 59 58 57 55 54 53 51 50 49 48 47 46 45 46 46 47 48 50 52 52 52 52 51 50 47
31 31 33 36 38 40 43 46 47 48 50 52 53 56 57 56 57 58 59 59 58 56 54 53 52 52 51 50 48 48 48 48 48 49 50 52 53 53 53 53 51 49
33 31 31 33 37 40 42 43 45 46 48 51 52 53 55 56 56 57 59 59 59 57 56 55 54 54 54 52 50 49 49 49 49 50 51 52 54 54 55 54 53 50
38 34 31 32 35 39 41 41 42 44 46 48 50 52 53 54 55 56 58 59 59 58 57 56 56 56 55 53 51 50 48 48 49 50 51 53 54 56 56 55 54 51
42 40 35 33 33 35 38 39 40 42 45 46 48 50 51 52 54 55 56 57 57 57 57 57 56 55 54 53 52 50 48 48 49 50 51 53 54 56 56 55 54 52
43 43 41 37 33 32 34 37 39 41 43 44 46 47 49 51 53 53 54 55 56 57 57 57 56 54 53 52 51 49 49 49 49 50 51 52 53 55 55 55 55 53
44 44 44 41 37 33 32 34 37 39 41 41 43 45 47 50 51 52 53 54 55 56 56 55 55 54 53 52 50 49 49 48 49 50 50 51 52 53 54 55 54 53
44 44 45 44 41 37 33 33 34 36 38 39 40 43 46 48 49 51 52 52 52 53 53 54 54 53 53 51 50 49 48 48 49 50 51 52 52 52 52 53 53 52
44 45 46 45 44 41 37 34 33 34 35 37 39 41 43 46 47 49 49 50 49 50 52 53 53 53 53 51 49 48 47 48 50 51 52 53 52 51 51 51 53 52
44 45 45 45 45 43 40 36 33 32 33 34 37 39 41 44 45 46 47 48 48 49 51 52 53 53 52 51 49 47 48 50 51 52 53 53 52 51 50 51 53 51
44 45 45 45 45 44 42 38 34 32 32 32 35 37 39 42 43 44 46 47 48 49 50 50 51 52 51 50 48 47 48 51 51 51 52 52 51 50 50 51 51 49
43 44 45 45 44 44 42 40 36 33 31 32 33 35 37 39 41 43 44 45 46 47 48 49 50 51 50 49 47 46 49 51 51 50 50 51 52 51 50 50 49 47
44 44 44 45 45 43 42 41 38 34 31 31 32 34 35 37 39 41 43 44 45 46 47 48 49 49 48 47 46 46 49 51 51 50 51 51 52 51 50 50 48 46
Wind_Direction
249 247 246 244 243 243 242 240 240 240 241 242 243 244 245 244 241 238 236 235 235 235 235 235 234 233 232 231 231 231 231 232 232 234 236 238 240 242 245 248 252 254
253 250 249 247 246 245 243 242 241 241 242 243 245 246 246 245 243 242 240 238 237 236 235 235 235 235 234 233 232 231 231 231 231 232 234 236 239 241 244 248 251 253
256 253 252 251 250 248 247 246 244 243 243 243 244 244 244 245 244 243 242 241 240 239 238 237 236 236 235 234 233 233 232 232 231 232 233 235 238 240 243 246 249 251
259 257 256 255 254 252 250 249 247 246 245 243 242 242 243 244 244 243 243 242 241 241 240 239 238 237 236 235 234 233 233 232 232 232 233 235 237 239 242 245 247 249
265 262 259 258 256 255 253 251 250 249 247 246 244 243 243 244 244 243 242 241 239 239 239 239 239 238 236 236 234 233 233 232 231 231 232 234 236 238 241 243 245 247
270 266 262 259 257 256 255 254 253 252 251 250 248 246 245 244 244 244 242 241 239 237 236 236 237 237 237 236 235 234 233 232 232 231 232 234 236 237 239 242 244 246
275 272 267 262 259 257 257 257 256 255 254 253 252 251 248 247 246 245 245 244 242 239 236 235 235 236 236 236 235 234 234 233 232 232 233 234 235 236 237 239 241 244
276 274 271 268 264 261 260 259 259 257 256 255 255 253 252 250 249 248 248 247 245 242 239 236 234 234 234 235 235 235 235 234 233 232 233 233 234 235 236 238 240 242
277 275 273 272 270 269 267 265 264 261 259 257 256 255 254 253 252 250 249 249 248 246 243 238 235 233 233 233 234 235 235 235 234 234 233 234 234 235 236 237 239 240
284 279 276 274 274 275 275 274 270 265 261 259 257 256 255 254 253 251 250 249 249 248 246 242 238 234 232 232 232 234 235 235 235 235 235 235 235 236 236 238 238 239
291 286 281 278 277 278 279 279 275 269 264 260 257 256 255 254 253 252 250 249 248 248 247 245 241 236 233 232 231 232 233 234 235 235 236 236 236 236 237 237 238 238
294 290 286 283 281 281 281 280 277 271 266 261 258 256 255 254 253 252 251 250 249 248 248 247 244 240 236 233 232 231 232 233 234 235 235 236 236 236 236 237 237 237
301 297 292 288 285 283 282 279 276 273 268 264 261 258 256 255 254 252 251 251 249 248 247 247 245 243 239 235 232 231 232 232 233 233 234 234 235 235 236 236 236 235
311 304 298 293 288 285 282 278 275 273 270 266 261 258 256 256 255 254 252 250 249 248 247 246 245 244 241 237 233 231 231 231 232 232 232 233 233 234 234 234 235 234
317 309 304 298 292 286 282 280 277 274 271 266 261 258 257 256 256 254 252 250 249 247 246 245 244 244 242 239 235 231 230 229 230 231 231 232 232 232 232 233 233 232
328 317 310 302 295 289 285 282 279 274 270 266 263 259 257 256 254 253 252 251 249 247 245 244 244 244 243 240 237 234 232 230 230 230 230 231 232 232 231 231 231 230
340 330 318 308 301 294 289 284 280 274 270 266 263 260 258 256 254 253 252 251 249 247 246 245 245 245 243 241 239 236 234 232 232 231 231 231 231 231 231 231 230 229
346 341 331 321 312 303 294 287 281 274 269 265 263 261 259 257 255 253 252 250 248 247 246 246 246 245 244 243 240 237 234 233 233 233 233 232 232 232 232 231 230 228
343 344 341 336 326 314 302 292 282 275 270 267 265 263 260 258 256 253 250 248 247 247 247 246 246 246 245 243 241 238 236 234 234 234 234 234 233 233 232 231 230 228
337 339 342 342 337 327 312 299 288 280 275 272 268 264 260 258 256 253 250 249 248 248 247 247 247 246 245 244 241 239 237 235 235 235 235 235 235 235 234 232 231 229
335 335 336 339 341 337 326 312 299 289 282 276 271 267 263 260 257 254 252 250 249 249 248 248 248 247 246 243 241 239 237 236 235 235 236 236 235 235 234 233 232 231
332 332 331 333 336 338 335 326 312 299 290 283 276 271 266 261 258 255 253 252 250 249 249 249 249 247 244 243 240 238 237 236 235 235 235 235 235 234 232 231 230 230
329 329 328 328 330 333 336 333 323 310 298 288 280 274 269 264 260 257 255 253 251 250 249 248 248 246 244 242 240 237 236 235 234 234 234 234 234 233 231 229 229 229
326 326 325 324 323 325 330 332 329 320 307 294 283 277 273 268 264 259 256 253 252 251 250 248 248 247 244 242 240 237 236 236 235 233 233 233 233 231 230 228 227 227
321 322 321 320 319 319 323 327 329 326 316 303 290 282 276 270 265 260 257 254 252 251 250 248 247 246 244 242 239 236 235 236 235 233 233 232 231 230 229 227 225 225
318 317 317 317 316 316 317 321 324 326 322 311 298 288 280 273 268 263 259 257 254 252 250 247 245 244 242 240 237 234 234 236 235 233 232 231 230 229 227 225 223 223